Location: Park Creek Village Mobile Home Park
(38.2885°N, 122.4714°W)
Time: 13:55:24
(UTC+00:00)

Meteor 1-20 Rocket - Pass Details

Date: 14 December 2019
Orbit: 819 x 892 km, 81.2° (Epoch: 28 January)

Event Time Altitude Azimuth Distance (km) Brightness Sun altitude
Rises 12:33:57 0° 183° (S) 3,483 7.4 -31.4°
Reaches altitude 10° 12:36:23 10° 181° (S) 2,550 6.7 -31.0°
Maximum altitude 12:42:12 77° 96° (E) 918 4.3 -29.8°
Drops below altitude 10° 12:48:02 10° 12° (NNE) 2,559 6.7 -28.7°
Sets 12:50:29 0° 11° (N) 3,496 7.4 -28.2°
